This is the latest recevied weather packets stored in our database for station/object KD4MBW. If no packets are shown the sender has not sent any weather packets the latest 10 day(s).
| Time | Temp. | Humidity | Pressure | Rain* | Wind** | Luminosity | Snow |
|---|---|---|---|---|---|---|---|
| 1777339278 | 22.22° C | 91% | 1018.5 hPa | 0 mm | - | 0 W/m² | - |
| 1777338976 | 22.22° C | 91% | 1018.4 hPa | 0 mm | - | 0 W/m² | - |
| 1777338672 | 22.22° C | 90% | 1018.3 hPa | 0 mm | - | 0 W/m² | - |
| 1777338370 | 22.22° C | 90% | 1018 hPa | 0 mm | - | 0 W/m² | - |
| 1777338066 | 22.78° C | 89% | 1018.1 hPa | 0 mm | - | 0 W/m² | - |
| 1777337763 | 22.78° C | 88% | 1018.2 hPa | 0 mm | - | 0 W/m² | - |
| 1777337460 | 22.78° C | 88% | 1018 hPa | 0 mm | - | 0 W/m² | - |
| 1777337157 | 22.78° C | 87% | 1018.2 hPa | 0 mm | - | 0 W/m² | - |
| 1777336854 | 23.33° C | 86% | 1018.2 hPa | 0 mm | - | 0 W/m² | - |
| 1777336554 | 23.33° C | 86% | 1018.2 hPa | 0 mm | - | 0 W/m² | - |
| 1777336251 | 23.33° C | 85% | 1018 hPa | 0 mm | - | 1 W/m² | - |
| 1777335948 | 23.89° C | 84% | 1018 hPa | 0 mm | - | 1 W/m² | - |
| 1777335645 | 23.89° C | 84% | 1018.2 hPa | 0 mm | - | 3 W/m² | - |
| 1777335342 | 23.89° C | 83% | 1017.9 hPa | 0 mm | - | 5 W/m² | - |
| 1777335039 | 24.44° C | 82% | 1018.1 hPa | 0 mm | - | 8 W/m² | - |
| 1777334736 | 24.44° C | 82% | 1018.1 hPa | 0 mm | - | 10 W/m² | - |
| 1777334434 | 24.44° C | 81% | 1018.1 hPa | 0 mm | - | 15 W/m² | - |
| 1777334131 | 25° C | 81% | 1017.9 hPa | 0 mm | - | 20 W/m² | - |
| 1777333830 | 25° C | 80% | 1017.8 hPa | 0 mm | - | 25 W/m² | - |
| 1777333527 | 25° C | 80% | 1017.7 hPa | 0 mm | - | 28 W/m² | - |
| 1777333224 | 25° C | 79% | 1017.7 hPa | 0 mm | - | 33 W/m² | - |
| 1777332922 | 25.56° C | 79% | 1017.7 hPa | 0 mm | - | 40 W/m² | - |
| 1777332620 | 25.56° C | 78% | 1017.5 hPa | 0 mm | - | 47 W/m² | - |
| 1777332316 | 25.56° C | 78% | 1017.5 hPa | 0 mm | - | 53 W/m² | - |
| 1777332012 | 25.56° C | 78% | 1017.5 hPa | 0 mm | - | 62 W/m² | - |
* Rain latest hour (hover to see other rain measurements)
** Current wind speed in m/s (hover to see current wind gust speed)